Weather History for Muncie, IN

Change the Weather History Date:

Thursday, December 6, 2012

  Actual Average Record
Temperature  
Mean Temperature 35 °F 34 °F  
Max Temperature 46 °F 41 °F 69 °F (1998)
Min Temperature 24 °F 26 °F 5 °F (2007)
Degree Days  
Heating Degree Days 30 31  
Month to date heating degree days 95 182  
Since 1 July heating degree days 1351 1317  
Cooling Degree Days 0 0  
Month to date cooling degree days 0 0  
Year to date cooling degree days 1149 956  
Moisture  
Dew Point 30 °F    
Average Humidity 71    
Maximum Humidity 81    
Minimum Humidity 60    
Precipitation  
Precipitation 0.00 in 0.10 in 0.50 in (1971)
Month to date precipitation 0.31 0.60  
Year to date precipitation 30.88 37.84  
Sea Level Pressure  
Sea Level Pressure 30.10 in    
Wind  
Wind Speed 7 mph (SSE)    
Max Wind Speed 13 mph    
Max Gust Speed -    
Visibility 10 miles    
Events      
T = Trace of Precipitation, MM = Missing Value Source: NWS Daily Summary

Daily Weather History Graph

Daily Weather History Graph

Search for Another Location

Airport:

Trip Planner

Search our weather history database for the weather conditions in past years. The results will help you decide how hot, cold, wet, or windy it might be!

Date:

Astronomy

Dec. 06, 2012 Rise Set
Actual Time 7:50 AM EST 5:15 PM EST
Civil Twilight 7:19 AM EST 5:45 PM EST
Nautical Twilight 6:45 AM EST 6:19 PM EST
Astronomical Twilight 6:12 AM EST 6:52 PM EST
Moon 12:04 AM EST (12/6) 12:41 PM EST (12/6)
Length of Visible Light 10h 26m
Length of Day
9h 25m
Waning Gibbous, 49% of the Moon is Illuminated
Dec 6
Waning Gibbous
Dec 13
New
Dec 20
First Quarter
Dec 28
Full
Jan 4
Last Quarter

Hourly Weather History & Observations

Time (EST) Temp. Windchill Dew Point Humidity Pressure Visibility Wind Dir Wind Speed Gust Speed Precip Events Conditions
12:53 AM 28.9 °F 19.8 °F 23.0 °F 78% 30.28 in 10.0 mi ESE 10.4 mph - N/A   Clear
1:53 AM 30.0 °F 21.1 °F 23.0 °F 75% 30.25 in 10.0 mi SE 10.4 mph - N/A   Clear
2:53 AM 30.0 °F 21.1 °F 23.0 °F 75% 30.25 in 10.0 mi SE 10.4 mph - N/A   Clear
3:53 AM 28.9 °F 22.8 °F 23.0 °F 78% 30.25 in 10.0 mi SE 5.8 mph - N/A   Clear
4:53 AM 28.0 °F 20.0 °F 21.9 °F 78% 30.22 in 10.0 mi SE 8.1 mph - N/A   Clear
5:53 AM 28.0 °F - 21.9 °F 78% 30.23 in 10.0 mi Calm Calm - N/A   Clear
6:53 AM 25.0 °F 19.3 °F 19.9 °F 81% 30.22 in 10.0 mi ESE 4.6 mph - N/A   Clear
7:53 AM 27.0 °F 20.5 °F 21.9 °F 81% 30.22 in 10.0 mi SE 5.8 mph - N/A   Clear
8:53 AM 28.9 °F 21.1 °F 23.0 °F 78% 30.20 in 10.0 mi SSE 8.1 mph - N/A   Clear
9:53 AM 33.1 °F 26.9 °F 26.1 °F 75% 30.18 in 10.0 mi SSE 6.9 mph - N/A   Clear
10:53 AM 36.0 °F 30.3 °F 28.0 °F 73% 30.17 in 10.0 mi SSE 6.9 mph - N/A   Clear
11:53 AM 41.0 °F 35.8 °F 30.9 °F 67% 30.14 in 10.0 mi South 8.1 mph - N/A   Clear
12:53 PM 43.0 °F 39.5 °F 32.0 °F 65% 30.08 in 10.0 mi SSE 5.8 mph - N/A   Clear
1:53 PM 45.0 °F 41.2 °F 34.0 °F 65% 30.05 in 10.0 mi South 6.9 mph - N/A   Clear
2:53 PM 46.0 °F 42.5 °F 33.1 °F 61% 30.03 in 10.0 mi South 6.9 mph - N/A   Clear
3:53 PM 46.0 °F 43.9 °F 33.1 °F 61% 30.02 in 10.0 mi SSE 4.6 mph - N/A   Clear
4:53 PM 45.0 °F 43.5 °F 33.1 °F 63% 30.03 in 10.0 mi South 3.5 mph - N/A   Clear
5:53 PM 44.1 °F 41.5 °F 34.0 °F 68% 30.02 in 10.0 mi SSE 4.6 mph - N/A   Mostly Cloudy
6:53 PM 43.0 °F 40.3 °F 34.0 °F 71% 30.02 in 10.0 mi SSE 4.6 mph - N/A   Overcast
7:53 PM 43.0 °F 39.5 °F 34.0 °F 71% 30.00 in 10.0 mi South 5.8 mph - N/A   Mostly Cloudy
8:53 PM 44.1 °F 39.5 °F 34.0 °F 68% 29.98 in 10.0 mi South 8.1 mph - N/A   Overcast
9:29 PM 44.6 °F 40.7 °F 35.6 °F 71% 29.97 in 10.0 mi South 6.9 mph - N/A   Overcast
9:53 PM 45.0 °F 41.2 °F 35.1 °F 68% 29.98 in 10.0 mi South 6.9 mph - N/A   Overcast
10:43 PM 44.6 °F 40.2 °F 35.6 °F 71% 29.98 in 10.0 mi SSW 8.1 mph - N/A   Overcast
10:53 PM 45.0 °F 41.8 °F 37.0 °F 74% 29.99 in 10.0 mi SSW 5.8 mph - N/A   Overcast
11:53 PM 44.1 °F - 37.0 °F 76% 29.97 in 10.0 mi Calm Calm - N/A   Clear